Regional Weather Roundup
Issued by NWS

Home | Current Version | Previous Version | Graphics & Text | Print | Product List | Glossary Off
Versions: 1 2 3 4 5 6 7 8 9 10 11 12 13 14 15 16 17 18 19 20 21 22 23 24 25 26 27 28 29 30 31 32 33 34 35 36 37 38 39 40 41 42 43 44 45 46 47 48 49 50

000
ASUS43 KMKX 240910
RWRWI

WISCONSIN REGIONAL WEATHER ROUNDUP
NATIONAL WEATHER SERVICE MILWAUKEE/SULLIVAN WI
300 AM CST FRI NOV 24 2017

NOTE: "FAIR" INDICATES FEW OR NO CLOUDS BELOW 12,000 FEET WITH NO
SIGNIFICANT WEATHER AND/OR OBSTRUCTIONS TO VISIBILITY.

WIZ001-002-006>008-014>016-023>028-241000-
NORTHWEST WISCONSIN

CITY           SKY/WX    TMP DP  RH WIND       PRES   REMARKS
SUPERIOR ARPT  MOCLDY    42  32  70 SW10      29.37F
ASHLAND        CLEAR     43  30  60 S15G23    29.38F
HAYWARD        CLEAR     41  31  67 S13       29.44F
SIREN          CLEAR     44  33  67 S7        29.43F
CUMBERLAND     CLOUDY    39  32  75 S8        29.47F WCI  34
RICE LAKE      CLOUDY    39  31  72 SE5       29.50F
CHETEK         CLOUDY    39  31  72 S7        29.50F WCI  34
LADYSMITH      CLOUDY    40  29  66 S9        29.52F WCI  34
EAU CLAIRE     PTCLDY    39  30  70 S3        29.52F
MENOMONIE      PTCLDY    43  32  64 SE5       29.52F
NEW RICHMOND   PTCLDY    44  33  65 S9        29.48F
OSCEOLA        NOT AVBL
$$

WIZ003>005-009-010-017-018-241000-
NORTH CENTRAL WISCONSIN

CITY           SKY/WX    TMP DP  RH WIND       PRES   REMARKS
MANITOWISH WTR PTCLDY    39  30  68 SW13      29.45F WCI  32
ARBOR VITAE    CLOUDY    38  29  71 S8        29.47F WCI  32
WOODRUFF       CLOUDY    38  29  71 S8        29.47F WCI  32
RHINELANDER    CLOUDY    38  28  67 SW14G23   29.51F WCI  30
EAGLE RIVER    CLOUDY    40  26  59 SW9G21    29.46F WCI  33
LAND O LAKES   CLOUDY    40  28  62 SW12G24   29.47F WCI  34
PHILLIPS       CLOUDY    41  31  67 SW10      29.48F
TOMAHAWK       CLOUDY    38  28  65 S3        29.53F
MEDFORD        PTCLDY    38  28  69 S10       29.54F WCI  30
MERRILL        CLOUDY    38  27  65 SW6       29.57F WCI  33
$$

WIZ029-030-035-036-043>047-241000-
CENTRAL WISCONSIN

CITY           SKY/WX    TMP DP  RH WIND       PRES   REMARKS
WAUSAU         PTCLDY    37  27  67 S8        29.56F WCI  31
MOSINEE        PTCLDY    34  28  80 S9        29.59F WCI  26
MARSHFIELD     PTCLDY    37  27  67 S10       29.56F WCI  30
STEVENS POINT  MOCLDY    36  26  67 S9        29.60F WCI  29
WAUPACA        CLOUDY    38  28  66 S7        29.64F WCI  33
WAUTOMA        CLOUDY    35  26  69 S6        29.66F WCI  30
WISC RAPIDS    CLOUDY    40  28  62 S8        29.61F WCI  34
CAMP DOUGLAS   PTCLDY    45  31  57 S7        29.62F
$$

WIZ011>013-019>022-031-037>040-048>050-241000-
NORTHEAST WISCONSIN

CITY           SKY/WX    TMP DP  RH WIND       PRES   REMARKS
ANTIGO         CLOUDY    37  27  67 SW14      29.57F WCI  28
SHAWANO        CLOUDY    38  27  62 SW7       29.62F WCI  33
OCONTO         CLOUDY    37  27  66 SW9       29.62F WCI  30
STURGEON BAY   CLOUDY    37  26  64 SW12      29.65F WCI  29
GREEN BAY      CLOUDY    37  29  72 S9        29.65F WCI  30
MANITOWOC      CLEAR     33  25  72 S8        29.69F WCI  26
APPLETON       CLOUDY    36  27  69 S14       29.64F WCI  27
CLINTONVILLE   MOCLDY    37  25  60 S8        29.63F WCI  31
OSHKOSH        CLEAR     37  28  70 S14G21    29.67F WCI  28
$$

WIZ032>034-041-042-053>061-241000-
SOUTHWEST WISCONSIN

CITY           SKY/WX    TMP DP  RH WIND       PRES   REMARKS
LA CROSSE      PTCLDY    43  31  62 SE12      29.61F
SPARTA         PTCLDY    44  32  62 S5        29.63F
VIROQUA        PTCLDY    42  32  67 S13G18    29.64F
BOSCOBEL       CLEAR     27  24  89 CALM      29.70F
PRAIRIE DU CHI CLEAR     41  30  64 E5        29.68F
PLATTEVILLE    CLEAR     36  30  80 S10       29.72F WCI  28
$$

WIZ056-057-062-063-064-067-068-241000-
SOUTH CENTRAL WISCONSIN

CITY           SKY/WX    TMP DP  RH WIND       PRES   REMARKS
REEDSBURG      PTCLDY    40  29  65 SW9       29.67F WCI  35
BARABOO/DELLS  PTCLDY    42  29  60 SW14      29.66F
LONE ROCK      NOT AVBL
MINERAL POINT  PTCLDY    39  32  75 S13       29.71F WCI  32
MADISON        PTCLDY    38  28  67 SW8       29.72F WCI  32
MIDDLETON      PTCLDY    41  30  64 SW10      29.72F
WATERTOWN      CLEAR     33  28  82 S6        29.74F WCI  28
MONROE         PTCLDY    36  28  75 S16       29.74F WCI  26
JANESVILLE     PTCLDY    36  28  75 S8        29.77F WCI  29
$$

WIZ051-052-058>065-066-070>072-241000-
SOUTHEAST WISCONSIN

CITY           SKY/WX    TMP DP  RH WIND       PRES   REMARKS
MILWAUKEE      PTCLDY    37  27  67 SW8       29.76F WCI  31
WAUKESHA       CLEAR     34  27  75 SW8       29.76F WCI  27
MILWAUKEE/TIMM CLEAR     36  25  64 SW10      29.76F WCI  28
RACINE         CLEAR     35  27  72 SW8       29.79F WCI  29
BURLINGTON     PTCLDY    36  32  86 S6        29.77F WCI  31
KENOSHA        CLEAR     36  26  67 SW9       29.78F WCI  29
FOND DU LAC    PTCLDY    39  26  59 SW14      29.69F WCI  31
SHEBOYGAN      PTCLDY    36  28  73 S12       29.70F WCI  28
WEST BEND      MOCLDY    39  28  65 SW10G17   29.72F WCI  32
JUNEAU         PTCLDY    35  27  73 S10       29.73F WCI  28
$$

LSZ147-162-241000-
LAKE SUPERIOR

STATION/POSITION TIME  TEMP    WIND        PRES    WAVE
                       AIR SEA DIR/SP/G            HT/PER
                 (UTC) (F)     (DEG/KT/KT) (MB)    (FT/S)
DEVILS ISLAND    0900   42     220/  8/ 10  994.1F
SAXON HARBOR     0830   49     190/ 15/ 21  994.2F
$$

LMZ867-665-643>646-241000-
LAKE MICHIGAN

STATION/POSITION TIME  TEMP    WIND        PRES    WAVE
                       AIR SEA DIR/SP/G            HT/PER
                 (UTC) (F)     (DEG/KT/KT) (MB)    (FT/S)
N MID LAKE BUOY  0850   45 47  200/ 25/ 31 1003.5F   7/ 6
NORTHPORT PIER   0900   40     170/  7/ 16 1002.7
KEWAUNEE LAKESHO 0842   36     200/  9/ 11 1004.2F
SHEBOYGAN LAKESH 0900   38     190/ 15/ 17 1006.0F
PORT WASHINGTON  0830   36     190/  5/  8 1008.5F
MILWAUKEE LAKESH 0850   38     210/ 12/ 14   N/A
S MID LAKE BUOY  0850   45 47  220/ 17/ 21 1009.3F   3/ 4
KENOSHA   LAKESH 0900   37     190/  5/  8 1008.8
$$

TC  - TEMPERATURE IN CELSIUS
VSB - VISIBILITY IN STATUTE MILES
WCI - WIND CHILL INDEX
HX  - HEAT INDEX





USA.gov is the U.S. government's official web portal to all federal, state and local government web resources and services.